x

Spadeadam (03224) Weather Station

10:00am - Mon 22nd Dec 2014 All times are GMT.

  • Wind
    21mph
  • Air Temp 47°f
  • Sea Pressure 1004mb
  • Spadeadam
  • Spadeadam

More Historic Weather Station data

Upgrade to MSW Pro to gain access to the past 30 days of data for over 8000 Wavebouys and Weather Stations around the globe.

Join Pro

Comparision Forecast

View Surf forecast
   
Mon 12/22 10:00am 21
mph
1004mb 47f
9:00am 21 33 mph 1004mb 47f
8:00am 25 48 mph 1003mb 47f
7:00am 34 51 mph 1002mb 49f
6:00am 34 54 mph 1002mb 49f
5:00am 36 52 mph 1002mb 49f
4:00am 34 54 mph 1003mb 49f
3:00am 33 49 mph 1004mb 49f
2:00am 33 52 mph 1004mb 49f
1:00am 34 53 mph 1005mb 50f
12:00am 37 54 mph 1005mb 50f
Sun 12/21 11:00pm 36 54 mph 1006mb 50f
10:00pm 33 49 mph 1006mb 51f
9:00pm 37 55 mph 1006mb 51f
8:00pm 32 47 mph 1007mb 50f
7:00pm 31 47 mph 1007mb 50f
6:00pm 33 51 mph 1008mb 49f
5:00pm 37 53 mph 1008mb 48f
4:00pm 31 47 mph 1008mb 48f
3:00pm 33 46 mph 1010mb 47f
2:00pm 33 48 mph 1011mb 47f
1:00pm 34 48 mph 1011mb 46f
12:00pm 32 44 mph 1012mb 46f
11:00am 26 40 mph 1014mb 45f
10:00am 26 40 mph 1014mb 44f
9:00am 29 43 mph 1015mb 43f
8:00am 31 43 mph 1015mb 43f
7:00am 26 39 mph 1016mb 42f
6:00am 26 38 mph 1018mb 41f
5:00am 24 33 mph 1019mb 41f
4:00am 23 33 mph 1020mb 40f
3:00am 19 32 mph 1021mb 41f
2:00am 24 34 mph 1021mb 41f
1:00am 19 29 mph 1022mb 41f
12:00am 17
mph
1023mb 41f
Sat 12/20 11:00pm 18
mph
1023mb 41f
10:00pm 14
mph
1024mb 41f
9:00pm 14
mph
1024mb 40f
8:00pm 15
mph
1024mb 40f
7:00pm 10
mph
1024mb 39f
6:00pm 18
mph
1023mb 40f
5:00pm 19
mph
1023mb 40f
4:00pm 13
mph
1023mb 39f
3:00pm 14
mph
1022mb 40f
2:00pm 13
mph
1021mb 40f
1:00pm 19 36 mph 1020mb 41f
12:00pm 24 33 mph 1019mb 41f
11:00am 25 39 mph 1018mb 39f
10:00am 24 32 mph 1017mb 39f
9:00am 21 33 mph 1017mb 38f
8:00am 22 30 mph 1016mb 38f
7:00am 18 36 mph 1015mb 38f
6:00am 22 39 mph 1014mb 38f
5:00am 25 39 mph 1014mb 38f
4:00am 22 43 mph 1013mb 39f
3:00am 26 45 mph 1013mb 39f
2:00am 29 48 mph 1012mb 39f
1:00am 30 44 mph 1011mb 40f
12:00am 26 40 mph 1012mb 39f
Fri 12/19 11:00pm 24 33 mph 1012mb 38f
10:00pm 19 31 mph 1012mb 37f
9:00pm 21 38 mph 1011mb 37f
8:00pm 24 39 mph 1011mb 37f
7:00pm 28 41 mph 1010mb 36f
6:00pm 25 44 mph 1010mb 37f
5:00pm 19 44 mph 1009mb 36f
4:00pm 22 40 mph 1009mb 37f
3:00pm 22 45 mph 1008mb 38f
2:00pm 24 47 mph 1007mb 37f
1:00pm 24 45 mph 1006mb 39f
12:00pm 29 45 mph 1006mb 39f
11:00am 26 43 mph 1005mb 38f
10:00am 24 37 mph 1005mb 37f
9:00am 24 41 mph 1004mb 37f
8:00am 22 45 mph 1003mb 35f
7:00am 24 45 mph 1002mb 38f
6:00am 26 43 mph 1001mb 39f
5:00am 28 40 mph 1001mb 39f
4:00am 24 36 mph 1001mb 38f
3:00am 25 38 mph 1001mb 38f
2:00am 21 31 mph 1001mb 38f
1:00am 22 32 mph 1001mb 39f
12:00am 17
mph
1000mb 40f
Thu 12/18 11:00pm 15
mph
1000mb 41f
10:00pm 16 29 mph 1000mb 42f
9:00pm 17 33 mph 999mb 43f
8:00pm 23 32 mph 999mb 44f
7:00pm 21 32 mph 998mb 44f
6:00pm 19
mph
998mb 45f
5:00pm 19 32 mph 997mb 46f
4:00pm 24 34 mph 996mb 47f
3:00pm 24 51 mph 996mb 48f
2:00pm 32 48 mph 995mb 51f
1:00pm 33 49 mph 994mb 51f
12:00pm 31 47 mph 995mb 51f